Location: ??????
(41.3164°N, 22.6615°E)
Time: 00:43:06
(UTC+00:00)

Oscar 19 - Pass Details

Date: 07 July 2022
Orbit: 773 x 790 km, 98.8° (Epoch: 16 August)

Event Time Altitude Azimuth Distance (km) Brightness Sun altitude
Rises 02:11:09 0° 12° (NNE) 3,259 14.8 -8.7°
Reaches altitude 10° 02:13:28 10° 12° (NNE) 2,327 14.0 -8.4°
Maximum altitude 02:18:35 81° 286° (WNW) 788 10.6 -7.7°
Drops below altitude 10° 02:23:42 10° 199° (SSW) 2,315 12.6 -6.9°
Enters shadow 02:25:21 - 199° (SSW) 2,983 13.1 -6.7°
